Time,TemperatureF,DewpointF,PressureIn,WindDirection,WindDirectionDegrees,WindSpeedMPH,WindSpeedGustMPH,Humidity,HourlyPrecipIn,Conditions,Clouds,dailyrainin,SoftwareType,DateUTC
2013-05-20 00:01:00,44.0,40.0,-100.00,NE,48,2.0,6.0,86,0.00,,,-99.99,,2013-05-20 00:01:00,
2013-05-20 00:11:00,44.0,40.0,-100.00,NNW,346,4.0,7.0,85,0.00,,,-99.99,,2013-05-20 00:11:00,
2013-05-20 00:21:00,44.0,40.0,-100.00,North,3,6.0,10.0,85,0.03,,,-99.99,,2013-05-20 00:21:00,
2013-05-20 00:31:00,44.0,40.0,-100.00,East,79,4.0,7.0,88,0.00,,,-99.99,,2013-05-20 00:31:00,
2013-05-20 00:41:00,44.0,40.0,-100.00,WNW,302,1.0,4.0,87,0.00,,,-99.99,,2013-05-20 00:41:00,
2013-05-20 00:52:00,44.0,40.0,-100.00,NW,305,3.0,5.0,86,0.00,,,-99.99,,2013-05-20 00:52:00,
2013-05-20 01:01:00,43.0,39.0,-100.00,NW,312,3.0,4.0,86,0.03,,,-99.99,,2013-05-20 01:01:00,
2013-05-20 01:11:00,43.0,39.0,-100.00,North,0,4.0,7.0,88,0.03,,,-99.99,,2013-05-20 01:11:00,
2013-05-20 01:21:00,42.0,40.0,-100.00,NW,319,7.0,11.0,91,0.13,,,-99.99,,2013-05-20 01:21:00,
2013-05-20 01:31:00,42.0,40.0,-100.00,WNW,292,4.0,6.0,93,0.07,,,-99.99,,2013-05-20 01:31:00,
2013-05-20 01:41:00,42.0,40.0,-100.00,NW,320,15.0,17.0,92,0.00,,,-99.99,,2013-05-20 01:41:00,
2013-05-20 01:52:00,41.0,39.0,-100.00,NNE,23,2.0,5.0,92,0.00,,,-99.99,,2013-05-20 01:52:00,
2013-05-20 02:01:00,41.0,40.0,-100.00,West,272,8.0,12.0,93,0.04,,,-99.99,,2013-05-20 02:01:00,
2013-05-20 02:11:00,41.0,39.0,-100.00,West,280,7.0,10.0,93,0.01,,,-99.99,,2013-05-20 02:11:00,
2013-05-20 02:21:00,40.0,38.0,-100.00,WNW,302,6.0,7.0,93,0.01,,,-99.99,,2013-05-20 02:21:00,
2013-05-20 02:31:00,40.0,39.0,-100.00,NW,308,7.0,8.0,93,0.03,,,-99.99,,2013-05-20 02:31:00,
2013-05-20 02:42:00,40.0,39.0,-100.00,WNW,301,6.0,7.0,94,0.06,,,-99.99,,2013-05-20 02:42:00,
2013-05-20 02:51:00,40.0,39.0,-100.00,NW,313,4.0,7.0,95,0.01,,,-99.99,,2013-05-20 02:51:00,
2013-05-20 03:01:00,40.0,39.0,-100.00,WNW,298,4.0,6.0,96,0.03,,,-99.99,,2013-05-20 03:01:00,
2013-05-20 03:11:00,40.0,39.0,-100.00,NW,315,6.0,7.0,96,0.07,,,-99.99,,2013-05-20 03:11:00,
2013-05-20 03:21:00,40.0,39.0,-100.00,WNW,294,4.0,5.0,97,0.00,,,-99.99,,2013-05-20 03:21:00,
2013-05-20 03:33:00,40.0,39.0,-100.00,WNW,296,4.0,5.0,97,0.06,,,-99.99,,2013-05-20 03:33:00,
2013-05-20 03:42:00,40.0,40.0,-100.00,West,271,5.0,6.0,97,0.03,,,-99.99,,2013-05-20 03:42:00,
2013-05-20 03:52:00,40.0,39.0,-100.00,West,264,5.0,6.0,97,0.04,,,-99.99,,2013-05-20 03:52:00,
2013-05-20 04:02:00,40.0,40.0,-100.00,WNW,291,3.0,6.0,97,0.03,,,-99.99,,2013-05-20 04:02:00,
2013-05-20 04:12:00,40.0,39.0,-100.00,NW,318,4.0,6.0,97,0.08,,,-99.99,,2013-05-20 04:12:00,
2013-05-20 04:22:00,40.0,39.0,-100.00,North,0,9.0,15.0,97,0.03,,,-99.99,,2013-05-20 04:22:00,
2013-05-20 04:33:00,40.0,39.0,-100.00,North,0,9.0,14.0,97,0.03,,,-99.99,,2013-05-20 04:33:00,
2013-05-20 04:42:00,40.0,39.0,-100.00,North,10,9.0,16.0,97,0.06,,,-99.99,,2013-05-20 04:42:00,
2013-05-20 04:52:00,40.0,39.0,-100.00,North,8,8.0,12.0,97,0.04,,,-99.99,,2013-05-20 04:52:00,
2013-05-20 05:02:00,39.0,39.0,-100.00,NNW,339,9.0,14.0,97,0.04,,,-99.99,,2013-05-20 05:02:00,
2013-05-20 05:11:00,39.0,39.0,-100.00,North,6,5.0,7.0,97,0.03,,,-99.99,,2013-05-20 05:11:00,
2013-05-20 05:21:00,39.0,39.0,-100.00,NNW,339,6.0,9.0,97,0.07,,,-99.99,,2013-05-20 05:21:00,
2013-05-20 05:32:00,39.0,39.0,-100.00,North,352,6.0,10.0,97,0.03,,,-99.99,,2013-05-20 05:32:00,
2013-05-20 05:42:00,39.0,39.0,-100.00,NNE,17,7.0,11.0,97,0.06,,,-99.99,,2013-05-20 05:42:00,
2013-05-20 05:51:00,39.0,39.0,-100.00,North,4,7.0,10.0,97,0.03,,,-99.99,,2013-05-20 05:51:00,
2013-05-20 06:01:00,40.0,39.0,-100.00,NNE,13,5.0,9.0,97,0.06,,,-99.99,,2013-05-20 06:01:00,
2013-05-20 06:11:00,39.0,39.0,-100.00,NNW,344,4.0,7.0,97,0.06,,,-99.99,,2013-05-20 06:11:00,
2013-05-20 06:21:00,39.0,38.0,-100.00,NW,306,8.0,10.0,97,0.08,,,-99.99,,2013-05-20 06:21:00,
2013-05-20 06:31:00,38.0,38.0,-100.00,NW,318,16.0,21.0,97,0.08,,,-99.99,,2013-05-20 06:31:00,
2013-05-20 06:41:00,39.0,38.0,-100.00,WNW,288,17.0,21.0,97,0.03,,,-99.99,,2013-05-20 06:41:00,
2013-05-20 06:51:00,38.0,37.0,-100.00,WNW,288,13.0,18.0,97,0.04,,,-99.99,,2013-05-20 06:51:00,
2013-05-20 07:01:00,38.0,37.0,-100.00,WNW,289,13.0,17.0,97,0.01,,,-99.99,,2013-05-20 07:01:00,
2013-05-20 07:11:00,38.0,37.0,-100.00,WNW,289,12.0,16.0,97,0.01,,,-99.99,,2013-05-20 07:11:00,
2013-05-20 07:21:00,38.0,37.0,-100.00,WNW,289,9.0,11.0,98,0.00,,,-99.99,,2013-05-20 07:21:00,
2013-05-20 07:32:00,38.0,37.0,-100.00,WNW,289,9.0,11.0,98,0.00,,,-99.99,,2013-05-20 07:32:00,
2013-05-20 07:41:00,38.0,37.0,-100.00,WNW,288,8.0,10.0,97,0.01,,,-99.99,,2013-05-20 07:41:00,
2013-05-20 07:52:00,38.0,37.0,-100.00,WNW,289,8.0,10.0,97,0.01,,,-99.99,,2013-05-20 07:52:00,
2013-05-20 08:01:00,38.0,37.0,-100.00,WNW,292,10.0,12.0,95,0.03,,,-99.99,,2013-05-20 08:01:00,
2013-05-20 08:11:00,38.0,37.0,-100.00,WNW,287,7.0,10.0,95,0.03,,,-99.99,,2013-05-20 08:11:00,
2013-05-20 08:21:00,38.0,36.0,-100.00,WNW,298,11.0,13.0,93,0.00,,,-99.99,,2013-05-20 08:21:00,
2013-05-20 08:31:00,38.0,36.0,-100.00,WNW,289,9.0,12.0,93,0.01,,,-99.99,,2013-05-20 08:31:00,
2013-05-20 08:41:00,38.0,36.0,-100.00,WNW,295,9.0,11.0,93,0.01,,,-99.99,,2013-05-20 08:41:00,
2013-05-20 08:51:00,38.0,36.0,-100.00,WNW,295,9.0,11.0,93,0.01,,,-99.99,,2013-05-20 08:51:00,
2013-05-20 09:01:00,38.0,36.0,-100.00,WNW,298,7.0,10.0,92,0.01,,,-99.99,,2013-05-20 09:01:00,
2013-05-20 09:12:00,39.0,36.0,-100.00,WNW,301,10.0,14.0,92,0.00,,,-99.99,,2013-05-20 09:12:00,
2013-05-20 09:21:00,39.0,37.0,-100.00,NW,306,14.0,16.0,91,0.01,,,-99.99,,2013-05-20 09:21:00,
2013-05-20 09:32:00,39.0,37.0,-100.00,WNW,292,12.0,15.0,92,0.00,,,-99.99,,2013-05-20 09:32:00,
2013-05-20 09:42:00,39.0,37.0,-100.00,WNW,295,12.0,14.0,94,0.00,,,-99.99,,2013-05-20 09:42:00,
2013-05-20 09:52:00,39.0,37.0,-100.00,WNW,302,11.0,15.0,93,0.03,,,-99.99,,2013-05-20 09:52:00,
2013-05-20 10:03:00,39.0,37.0,-100.00,WNW,295,12.0,16.0,93,0.01,,,-99.99,,2013-05-20 10:03:00,
2013-05-20 10:12:00,40.0,37.0,-100.00,WNW,301,13.0,16.0,91,0.00,,,-99.99,,2013-05-20 10:12:00,
2013-05-20 10:22:00,40.0,37.0,-100.00,WNW,296,12.0,17.0,88,0.00,,,-99.99,,2013-05-20 10:22:00,
2013-05-20 10:32:00,40.0,37.0,-100.00,NW,309,13.0,14.0,88,0.01,,,-99.99,,2013-05-20 10:32:00,
2013-05-20 10:41:00,40.0,37.0,-100.00,NW,312,12.0,14.0,87,0.00,,,-99.99,,2013-05-20 10:41:00,
2013-05-20 10:52:00,40.0,37.0,-100.00,NW,304,11.0,13.0,87,0.00,,,-99.99,,2013-05-20 10:52:00,
2013-05-20 11:02:00,41.0,37.0,-100.00,NW,305,12.0,15.0,87,0.01,,,-99.99,,2013-05-20 11:02:00,
2013-05-20 11:12:00,41.0,37.0,-100.00,NW,308,10.0,12.0,88,0.00,,,-99.99,,2013-05-20 11:12:00,
2013-05-20 11:21:00,40.0,38.0,-100.00,NW,309,9.0,10.0,90,0.00,,,-99.99,,2013-05-20 11:21:00,
2013-05-20 11:32:00,40.0,37.0,-100.00,NW,305,9.0,12.0,89,0.00,,,-99.99,,2013-05-20 11:32:00,
2013-05-20 11:41:00,40.0,38.0,-100.00,NW,305,7.0,9.0,90,0.00,,,-99.99,,2013-05-20 11:41:00,
2013-05-20 11:51:00,40.0,38.0,-100.00,NW,315,7.0,9.0,90,0.00,,,-99.99,,2013-05-20 11:51:00,
2013-05-20 12:01:00,40.0,37.0,-100.00,NW,316,9.0,9.0,89,0.01,,,-99.99,,2013-05-20 12:01:00,
2013-05-20 12:11:00,41.0,37.0,-100.00,NW,305,10.0,12.0,88,0.01,,,-99.99,,2013-05-20 12:11:00,
2013-05-20 12:21:00,40.0,38.0,-100.00,NW,306,10.0,15.0,89,0.01,,,-99.99,,2013-05-20 12:21:00,
2013-05-20 12:31:00,41.0,38.0,-100.00,NW,306,12.0,15.0,89,0.00,,,-99.99,,2013-05-20 12:31:00,
2013-05-20 12:41:00,41.0,38.0,-100.00,WNW,299,11.0,15.0,89,0.00,,,-99.99,,2013-05-20 12:41:00,
2013-05-20 12:51:00,41.0,38.0,-100.00,WNW,301,12.0,14.0,90,0.00,,,-99.99,,2013-05-20 12:51:00,
2013-05-20 13:01:00,41.0,38.0,-100.00,NW,312,13.0,16.0,89,0.00,,,-99.99,,2013-05-20 13:01:00,
2013-05-20 13:11:00,41.0,38.0,-100.00,NW,309,9.0,12.0,90,0.00,,,-99.99,,2013-05-20 13:11:00,
2013-05-20 13:21:00,40.0,38.0,-100.00,NW,311,11.0,13.0,90,0.00,,,-99.99,,2013-05-20 13:21:00,
2013-05-20 13:31:00,40.0,38.0,-100.00,NW,316,14.0,17.0,91,0.00,,,-99.99,,2013-05-20 13:31:00,
2013-05-20 13:41:00,40.0,38.0,-100.00,NW,316,15.0,17.0,93,0.03,,,-99.99,,2013-05-20 13:41:00,
2013-05-20 13:51:00,40.0,38.0,-100.00,NW,309,11.0,12.0,95,0.01,,,-99.99,,2013-05-20 13:51:00,
2013-05-20 14:01:00,40.0,39.0,-100.00,NW,304,11.0,14.0,96,0.01,,,-99.99,,2013-05-20 14:01:00,
2013-05-20 14:11:00,40.0,39.0,-100.00,NW,311,12.0,14.0,97,0.00,,,-99.99,,2013-05-20 14:11:00,
2013-05-20 14:21:00,40.0,39.0,-100.00,NW,312,13.0,16.0,94,0.00,,,-99.99,,2013-05-20 14:21:00,
2013-05-20 14:31:00,40.0,39.0,-100.00,NW,304,11.0,15.0,94,0.00,,,-99.99,,2013-05-20 14:31:00,
2013-05-20 14:41:00,41.0,39.0,-100.00,WNW,301,12.0,14.0,91,0.00,,,-99.99,,2013-05-20 14:41:00,
2013-05-20 14:52:00,41.0,39.0,-100.00,NW,305,10.0,12.0,90,0.00,,,-99.99,,2013-05-20 14:52:00,
2013-05-20 15:01:00,41.0,39.0,-100.00,WNW,301,14.0,19.0,90,0.00,,,-99.99,,2013-05-20 15:01:00,
2013-05-20 15:11:00,42.0,38.0,-100.00,WNW,302,13.0,16.0,86,0.00,,,-99.99,,2013-05-20 15:11:00,
2013-05-20 15:21:00,42.0,38.0,-100.00,WNW,301,17.0,20.0,85,0.00,,,-99.99,,2013-05-20 15:21:00,
2013-05-20 15:33:00,42.0,37.0,-100.00,WNW,302,13.0,17.0,84,0.00,,,-99.99,,2013-05-20 15:33:00,
2013-05-20 15:42:00,42.0,37.0,-100.00,NW,308,16.0,19.0,82,0.00,,,-99.99,,2013-05-20 15:42:00,
2013-05-20 15:53:00,42.0,38.0,-100.00,NW,308,14.0,18.0,83,0.00,,,-99.99,,2013-05-20 15:53:00,
2013-05-20 16:02:00,42.0,38.0,-100.00,NW,311,12.0,15.0,84,0.01,,,-99.99,,2013-05-20 16:02:00,
2013-05-20 16:12:00,42.0,38.0,-100.00,NW,308,13.0,18.0,83,0.00,,,-99.99,,2013-05-20 16:12:00,
2013-05-20 16:22:00,43.0,36.0,-100.00,NW,309,16.0,21.0,79,0.00,,,-99.99,,2013-05-20 16:22:00,
2013-05-20 16:32:00,43.0,37.0,-100.00,NW,305,15.0,19.0,80,0.00,,,-99.99,,2013-05-20 16:32:00,
2013-05-20 16:42:00,43.0,36.0,-100.00,NW,309,16.0,20.0,77,0.00,,,-99.99,,2013-05-20 16:42:00,
2013-05-20 16:52:00,43.0,36.0,-100.00,NW,313,15.0,20.0,75,0.00,,,-99.99,,2013-05-20 16:52:00,
2013-05-20 17:02:00,44.0,36.0,-100.00,NW,316,16.0,18.0,74,0.00,,,-99.99,,2013-05-20 17:02:00,
2013-05-20 17:11:00,44.0,35.0,-100.00,NW,315,16.0,19.0,70,0.00,,,-99.99,,2013-05-20 17:11:00,
2013-05-20 17:22:00,45.0,36.0,-100.00,NW,320,18.0,22.0,72,0.00,,,-99.99,,2013-05-20 17:22:00,
2013-05-20 17:32:00,45.0,34.0,-100.00,NW,326,17.0,21.0,66,0.00,,,-99.99,,2013-05-20 17:32:00,
2013-05-20 17:44:00,45.0,35.0,-100.00,NW,319,18.0,23.0,67,0.00,,,-99.99,,2013-05-20 17:44:00,
2013-05-20 17:53:00,46.0,35.0,-100.00,NW,320,21.0,24.0,65,0.00,,,-99.99,,2013-05-20 17:53:00,
2013-05-20 18:02:00,45.0,33.0,-100.00,NW,316,20.0,24.0,61,0.00,,,-99.99,,2013-05-20 18:02:00,
2013-05-20 18:12:00,46.0,33.0,-100.00,NW,325,18.0,24.0,61,0.00,,,-99.99,,2013-05-20 18:12:00,
2013-05-20 18:23:00,46.0,33.0,-100.00,NW,316,21.0,26.0,61,0.00,,,-99.99,,2013-05-20 18:23:00,
2013-05-20 18:32:00,47.0,34.0,-100.00,NW,320,22.0,27.0,62,0.00,,,-99.99,,2013-05-20 18:32:00,
2013-05-20 18:41:00,47.0,33.0,-100.00,NW,311,21.0,26.0,59,0.00,,,-99.99,,2013-05-20 18:41:00,
2013-05-20 18:55:00,47.0,34.0,-100.00,NW,322,18.0,26.0,61,0.00,,,-99.99,,2013-05-20 18:55:00,
2013-05-20 19:04:00,47.0,33.0,-100.00,NW,315,19.0,23.0,59,0.00,,,-99.99,,2013-05-20 19:04:00,
2013-05-20 19:11:00,47.0,33.0,-100.00,NW,325,19.0,26.0,59,0.00,,,-99.99,,2013-05-20 19:11:00,
2013-05-20 19:21:00,47.0,35.0,-100.00,NW,325,17.0,23.0,62,0.00,,,-99.99,,2013-05-20 19:21:00,
2013-05-20 19:32:00,47.0,33.0,-100.00,NW,322,21.0,26.0,59,0.00,,,-99.99,,2013-05-20 19:32:00,
2013-05-20 19:41:00,47.0,33.0,-100.00,NW,326,22.0,29.0,58,0.00,,,-99.99,,2013-05-20 19:41:00,
2013-05-20 19:52:00,48.0,34.0,-100.00,NW,318,16.0,22.0,58,0.00,,,-99.99,,2013-05-20 19:52:00,
2013-05-20 20:01:00,48.0,32.0,-100.00,NW,325,20.0,26.0,54,0.00,,,-99.99,,2013-05-20 20:01:00,
2013-05-20 20:11:00,48.0,33.0,-100.00,NW,325,19.0,24.0,56,0.00,,,-99.99,,2013-05-20 20:11:00,
2013-05-20 20:21:00,48.0,35.0,-100.00,NW,322,15.0,20.0,59,0.00,,,-99.99,,2013-05-20 20:21:00,
2013-05-20 20:32:00,48.0,33.0,-100.00,NW,316,18.0,22.0,56,0.00,,,-99.99,,2013-05-20 20:32:00,
2013-05-20 20:42:00,48.0,32.0,-100.00,NNW,329,17.0,21.0,54,0.00,,,-99.99,,2013-05-20 20:42:00,
2013-05-20 20:51:00,48.0,33.0,-100.00,NW,322,17.0,23.0,54,0.00,,,-99.99,,2013-05-20 20:51:00,
2013-05-20 21:01:00,48.0,33.0,-100.00,NW,323,17.0,20.0,54,0.00,,,-99.99,,2013-05-20 21:01:00,
2013-05-20 21:11:00,48.0,37.0,-100.00,WNW,287,12.0,16.0,65,0.00,,,-99.99,,2013-05-20 21:11:00,
2013-05-20 21:21:00,47.0,35.0,-100.00,NW,315,11.0,13.0,61,0.00,,,-99.99,,2013-05-20 21:21:00,
2013-05-20 21:32:00,47.0,36.0,-100.00,NW,323,13.0,16.0,64,0.00,,,-99.99,,2013-05-20 21:32:00,
2013-05-20 21:42:00,48.0,37.0,-100.00,NW,304,7.0,12.0,65,0.00,,,-99.99,,2013-05-20 21:42:00,
2013-05-20 21:53:00,48.0,37.0,-100.00,WNW,299,8.0,12.0,65,0.00,,,-99.99,,2013-05-20 21:53:00,
2013-05-20 22:02:00,48.0,37.0,-100.00,NW,311,11.0,14.0,64,0.00,,,-99.99,,2013-05-20 22:02:00,
2013-05-20 22:12:00,49.0,37.0,-100.00,West,272,7.0,9.0,65,0.00,,,-99.99,,2013-05-20 22:12:00,
2013-05-20 22:22:00,48.0,40.0,-100.00,West,272,6.0,9.0,75,0.07,,,-99.99,,2013-05-20 22:22:00,
2013-05-20 22:33:00,49.0,37.0,-100.00,NW,312,10.0,14.0,64,0.00,,,-99.99,,2013-05-20 22:33:00,
2013-05-20 22:41:00,48.0,37.0,-100.00,NW,315,9.0,14.0,65,0.00,,,-99.99,,2013-05-20 22:41:00,
2013-05-20 22:52:00,49.0,37.0,-100.00,NW,308,6.0,12.0,65,0.00,,,-99.99,,2013-05-20 22:52:00,
2013-05-20 23:02:00,49.0,37.0,-100.00,North,352,5.0,9.0,62,0.00,,,-99.99,,2013-05-20 23:02:00,
2013-05-20 23:12:00,49.0,36.0,-100.00,NNE,14,6.0,11.0,61,0.00,,,-99.99,,2013-05-20 23:12:00,
2013-05-20 23:21:00,49.0,36.0,-100.00,NNW,347,7.0,14.0,60,0.00,,,-99.99,,2013-05-20 23:21:00,
2013-05-20 23:32:00,49.0,36.0,-100.00,NW,313,6.0,11.0,61,0.00,,,-99.99,,2013-05-20 23:32:00,
2013-05-20 23:41:00,49.0,35.0,-100.00,NW,318,9.0,15.0,58,0.00,,,-99.99,,2013-05-20 23:41:00,
2013-05-20 23:52:00,49.0,35.0,-100.00,NW,325,11.0,18.0,58,0.00,,,-99.99,,2013-05-20 23:52:00,